Погода в Иматре

Финляндия     61°10′14″N   28°46′18″E
темп.,
°C
ветер,
м/с
пор.,
м/с
влажн.,
%
обл.,
%
осадки,
мм/ч
давл.,
гПа
погр.,
м
16 мая, вс
вс1600:00+11всв23791 0.0 100516
03:00+10св228762 0.0 100420
06:00+11всв228793 0.0 100435
09:00+11ююз0188100 0.4 100552
12:00+10ю1193100 0.6 100757
15:00+14ю1172100 0.9 1008244
18:00+13зюз227791 0.2 1008308
21:00+12ююз228473 0.4 100928
17 мая, пн
пн1700:00+9ююз33864 0.1 101031
03:00+8ююз238787 0.1 101125
06:00+9ююв228535 0.0 101236
09:00+13юв36665 0.0 1013264
12:00+16юв4754100 0.0 1011674
15:00+18юв5851100 0.0 10101124
18:00+17вюв61166100 0.1 1009523
21:00+13юв4889100 1.5 1009160
18 мая, вт
вт1800:00+12вюв359984 2.2 100978
03:00+12вюв3598100 2.2 100995
06:00+11в489896 0.3 1007128
09:00+13всв5992100 0.3 1005212
12:00+16в6108097 0.1 1003316
15:00+16вюв599099 2.6 1001327
18:00+18юв6138277 2.9 999629
21:00+16ююв5118990 5.3 1000326
19 мая, ср
ср1900:00+14ююв5129236 2.0 1000344
03:00+12ю51295100 2.4 1001408
06:00+10ю51198100 0.1 1002358
09:00+10ю4796100 0.3 1004313
12:00+9з3397100 0.2 1005182
15:00+10зсз3391100 0.2 1006263
18:00+11сз349294 0.1 1005136
21:00+10с239385 0.1 100676
20 мая, чт
чт2000:00+9с339769 0.0 100543
03:00+9ссв239842 0.0 100533
06:00+10ссв2397100 0.0 100461
09:00+11ссв2394100 0.1 1003126
12:00+12св2494100 0.8 1001244
15:00+14вюв1488100 0.9 1000377
18:00+14вюв269299 3.8 996295
21:00+12юв47100100 8.7 994197